Flight Briefing for CPX673

Departure Arrival
Grand Bahama International Airport (MYGF)
Click to view FAA NOTAMS
Lynden Pindling International Airport (MYNN)
Click to view FAA NOTAMS
Departure Time Arrival Time
N/A N/A
Aircraft Distance
SF340AF 113nm
Departure METAR Arrival METAR
MYGF 230000Z 06011KT 9999 FEW018 SCT035 25/21 A3008 MYNN 230700Z 08008KT 9999 FEW025 25/20 A3008
Suggested Route
ZFP BR65V ZQA


View recent IFR Routes data
Notes



Charts and Procedures

Charts for MYGF
No chart available
Charts for MYNN
No chart available

Windy.com Weather Map